Location: Petrozavodsk
(61.7955°N, 34.3748°E)
Time: 21:42:55
(UTC+03:00)

Envisat - Pass Details

Date: 01 April 2023
Orbit: 763 x 765 km, 98.2° (Epoch: 31 May)

Event Time Altitude Azimuth Distance (km) Brightness Sun altitude
Rises 04:44:36 0° 18° (NNE) 3,250 7.0 -9.9°
Reaches altitude 10° 04:46:58 10° 22° (NNE) 2,319 6.3 -9.6°
Maximum altitude 04:52:01 58° 102° (ESE) 896 3.7 -9.1°
Drops below altitude 10° 04:57:02 10° 182° (S) 2,303 5.2 -8.6°
Sets 04:59:22 0° 186° (S) 3,225 5.9 -8.3°
